EDT,Max TemperatureF,Mean TemperatureF,Min TemperatureF,Max Dew PointF,MeanDew PointF,Min DewpointF,Max Humidity, Mean Humidity, Min Humidity, Max Sea Level PressureIn, Mean Sea Level PressureIn, Min Sea Level PressureIn, Max VisibilityMiles, Mean VisibilityMiles, Min VisibilityMiles, Max Wind SpeedMPH, Mean Wind SpeedMPH, Max Gust SpeedMPH,PrecipitationIn, CloudCover, Events, WindDirDegrees
2013-6-1,81,73,64,63,61,59,87,69,51,30.20,30.09,30.02,10,10,9,20,8,24,0.04,4,Rain,171
2013-6-2,72,68,64,67,64,62,100,91,81,30.09,30.00,29.93,10,8,1,20,4,25,0.95,8,Rain,164
2013-6-3,79,72,64,65,62,57,100,74,48,30.00,29.94,29.86,10,7,2,17,6,23,0.13,6,Rain,347
2013-6-4,79,69,59,63,60,58,97,74,50,30.15,30.03,29.96,10,10,9,10,3,15,0.00,4,,36
2013-6-5,78,72,65,65,63,61,100,82,64,30.16,30.06,29.95,10,9,3,14,5,22,0.53,6,Rain,152
2013-6-6,76,70,64,66,64,63,100,85,69,30.05,29.90,29.78,10,10,2,13,5,18,0.03,7,Rain,165
2013-6-7,82,73,64,66,64,60,100,76,51,29.91,29.78,29.68,10,8,0,17,6,21,3.42,7,Fog-Rain,344
2013-6-8,81,71,60,67,62,59,100,77,54,30.15,29.98,29.83,10,10,4,12,3,16,0.12,6,Rain,319
2013-6-9,77,69,61,70,65,61,100,87,74,30.20,30.11,30.04,10,7,0,24,4,37,1.48,6,Fog-Rain-Thunderstorm,157
2013-6-10,79,72,64,66,64,54,100,73,46,30.10,30.00,29.90,10,8,1,16,8,21,0.61,6,Rain,182
2013-6-11,82,72,61,64,62,60,100,76,51,30.05,29.99,29.95,10,9,6,16,5,22,0.02,2,Rain,344
2013-6-12,90,76,62,71,65,60,100,72,44,30.04,30.00,29.95,10,10,10,16,5,22,0.00,0,,335
2013-6-13,89,77,65,67,64,58,100,69,37,29.93,29.83,29.74,10,10,9,22,7,30,0.05,1,Thunderstorm,330
2013-6-14,78,68,58,61,54,50,87,63,39,30.07,29.93,29.83,10,10,10,30,13,37,0.00,1,,339
2013-6-15,81,67,52,61,56,51,100,71,42,30.19,30.11,30.06,10,10,2,13,3,15,0.00,1,,193
2013-6-16,81,70,58,65,61,57,100,75,49,30.16,30.09,30.03,10,10,10,13,4,16,T,1,,161
2013-6-17,79,73,66,67,66,64,100,85,69,30.11,30.02,29.96,10,9,0,26,4,31,0.64,6,Fog-Rain,349
2013-6-18,79,72,64,67,65,59,100,81,62,29.99,29.90,29.82,10,10,10,18,7,23,0.01,6,Rain,152
2013-6-19,78,69,60,63,61,59,97,77,56,30.12,30.02,29.94,10,10,8,13,4,15,T,3,,359
2013-6-20,78,69,60,64,61,59,100,78,56,30.29,30.21,30.13,10,10,7,13,3,18,0.00,5,,158
2013-6-21,80,70,60,63,61,57,100,73,45,30.34,30.26,30.18,10,6,0,9,2,15,0.00,3,Fog,162
2013-6-22,82,70,58,62,58,52,100,68,36,30.30,30.23,30.12,10,6,0,10,2,14,0.00,1,Fog,350
2013-6-23,82,70,58,67,63,57,97,78,58,30.28,30.19,30.14,10,10,9,12,3,20,0.04,3,Rain,172
2013-6-24,83,74,65,68,65,63,100,79,58,30.30,30.19,30.09,10,10,7,14,3,18,T,6,Rain-Thunderstorm,183
2013-6-25,83,73,63,67,65,62,100,79,58,30.24,30.14,30.05,10,9,1,14,2,16,T,4,Rain,261
2013-6-26,85,75,64,70,66,63,100,81,61,30.14,30.06,29.94,10,5,0,18,3,25,0.82,5,Fog-Rain-Thunderstorm,284
2013-6-27,87,76,65,70,67,63,97,76,55,29.97,29.86,29.78,10,10,10,20,4,25,0.09,3,Rain,318
2013-6-28,88,77,65,68,65,62,100,73,45,29.88,29.76,29.64,10,8,1,17,7,23,0.03,2,Rain,315
2013-6-29,83,73,62,64,62,58,100,72,43,29.78,29.71,29.65,10,7,0,15,5,20,0.00,3,Fog,317
2013-6-30,83,72,60,65,61,56,97,69,40,29.89,29.77,29.70,10,10,10,13,4,17,T,4,,159